Regional Weather Roundup
Issued by NWS

Home | Current Version | Previous Version | Text Only | Print | Product List | Glossary On
Versions: 1 2 3 4 5 6 7 8 9 10 11 12 13 14 15 16 17 18 19 20 21 22 23 24 25 26 27 28 29 30 31 32 33 34 35 36 37 38 39 40 41 42 43 44 45 46 47 48 49 50
000
ASUS42 KKEY 070510
RWRKEY

FLORIDA REGIONAL WEATHER ROUNDUP FOR THE FLORIDA KEYS
NATIONAL WEATHER SERVICE KEY WEST FLORIDA
100 AM EDT TUE JUL 07 2015

...SOUTH FLORIDA AND THE KEYS...

CITY           SKY/WX    TMP DP  RH WIND       PRES   REMARKS
FORT MYERS     PTCLDY    75  72  90 E3        30.11F
SW REGIONAL AP PTCLDY    74  71  91 E3        30.12F
NAPLES         NOT AVBL
MIAMI          MOCLDY    84  74  71 E14       30.11F HX  91
WEST KENDALL   CLEAR     78  73  84 SE3       30.11F
HOMESTEAD      CLEAR     79  73  83 CALM      30.11F
MARATHON       PTCLDY    84  76  76 E9        30.10F HX  93
BOCA CHICA NAS PTCLDY    83  75  77 E7        30.10F HX  90
KEY WEST INTL  CLEAR     84  77  79 E7        30.10F HX  94

...INTERNATIONAL WEATHER...

CITY           SKY/WX    TMP DP  RH WIND       PRES   REMARKS
NASSAU BAHAMAS PTCLDY    82  73  74 E5        30.14F
CANCUN MEXICO  PTCLDY    81  79  94 NE6       30.07F
COZUMEL MEXICO PTCLDY    77  75  94 CALM      30.07S

ADJACENT COASTAL WATERS...

STATION/POSITION TIME  SKY/WX   TEMP    WIND        PRES    WAVE
                                AIR SEA DIR/SP/G            HT/PER
                 (UTC)          (F)     (DEG/KT/KT) (MB)    (FT/S)
PULASKI SHOAL LI 0400            84      90/ 15/ 17 1019.4F
SAND KEY         0450            84      90/ 12/ 13 1019.2F
SOMBRERO KEY     0400            84      80/ 12/ 13 1020.3F
LONG KEY         0400            85 87   90/ 10/ 12 1020.6F
MOLASSES REEF    0400            84 85   70/  8/  9 1019.8F
FOWEY ROCKS      NOT AVBL

$$


USA.gov is the U.S. government's official web portal to all federal, state and local government web resources and services.